Notices

What's New in latest Release from April 7th, 2021:

- Updated Glossary, including Speed of Maximum Gust, and Total Hourly Precipitation

- Updated national and regional climate services offices contacts and prices information

- Addition of station inventory lists for 1981-2010, 1971-2000, and 1961-1990 Normals.

If you haven't already, please take our survey and provide feedback about our website: https://eccc.sondage-survey.ca/f/LanguageSelection.aspx?s=442ca660-fcf1-47c0-95a9-59707d6fd709

Hourly Data Report for November 12, 2017

VICTORIA UNIVERSITY CS
BRITISH COLUMBIA

48°27'25.200" N
123°18'16.600" W
60.10 m
1018598
71783
WYJ

Download Data

Hourly Data (November 2017)
Hourly Data Report for November 12, 2017
TIME
LST
Temp Definition
°C
Dew Point Definition
°C
Rel Hum Definition
%
Precip. Amount Definition
mm

Wind Dir Definition
10's deg

Wind Spd Definition
km/h
Visibility Definition
km
Stn Press Definition
kPa
Hmdx Definition


Wind Chill Definition


Weather Definition


00:00 8.0 7.4 96 0.0 0 1   100.48     LegendNANA
01:00 9.1 8.3 95 0.2 15 4   100.46     LegendNANA
02:00 8.6 8.0 96 0.5 30 6   100.47     LegendNANA
03:00 8.5 8.1 97 2.3 9 3   100.49     LegendNANA
04:00 8.4 8.0 98 1.0 10 2   100.47     LegendNANA
05:00 8.3 8.0 98 1.3 13 3   100.46     LegendNANA
06:00 8.5 8.1 98 0.0 11 1   100.46     LegendNANA
07:00 8.6 8.1 96 0.0 13 2   100.44     LegendNANA
08:00 8.9 8.3 96 0.0 12 2   100.45     LegendNANA
09:00 9.3 8.7 96 0.0 10 3   100.44     LegendNANA
10:00 9.1 8.2 94 0.0 16 2   100.45     LegendNANA
11:00 9.8 9.0 95 0.0 11 1   100.41     LegendNANA
12:00 9.4 8.9 96 0.9 13 3   100.41     LegendNANA
13:00 9.3 8.9 97 2.9 31 6   100.38     LegendNANA
14:00 9.3 8.9 97 0.8 4 3   100.35     LegendNANA
15:00 9.2 8.8 97 0.0 4 1   100.29     LegendNANA
16:00 9.1 8.6 97 0.0 3 3   100.22     LegendNANA
17:00 9.1 8.7 97 0.9 12 1   100.14     LegendNANA
18:00 8.5 8.2 98 0.5 17 3   100.12     LegendNANA
19:00 9.1 8.8 98 0.2 6 4   99.99     LegendNANA
20:00 9.4 8.9 97 0.0 9 6   99.89     LegendNANA
21:00 9.1 8.5 96 0.0 10 2   99.82     LegendNANA
22:00 9.0 8.6 97 0.0 13 2   99.75     LegendNANA
23:00 8.9 8.0 94 0.2 10 4   99.53     LegendNANA

Notes on Data Quality.

Legend

  • E = Estimated
  • M = Missing
  • NA = Not Available*
  • [empty] = Indicates an unobserved value
Date modified: